owner,sensor,date,latitude,longitude,vertical_datum,wind_speed,wind_to_direction,wind_speed_of_gust,qcFlag 
LOOP,urn:ioos:station:wmo:lopl1:1,2014-03-01T00:14:00Z,28.8850,-90.0250,10.0,5.4,150.0,6.2,'11111222,11111222,11111222' 
LOOP,urn:ioos:station:wmo:lopl1:1,2014-03-01T00:29:00Z,28.8850,-90.0250,10.0,5.5,157.0,6.3,'11111222,11111222,11111222' 
LOOP,urn:ioos:station:wmo:lopl1:1,2014-03-01T00:44:00Z,28.8850,-90.0250,10.0,5.6,160.0,6.4,'11111222,11111222,11111222' 
LOOP,urn:ioos:station:wmo:lopl1:1,2014-03-01T00:59:00Z,28.8850,-90.0250,10.0,5.3,166.0,7.2,'11111222,11111222,11111222' 
LOOP,urn:ioos:station:wmo:lopl1:1,2014-03-01T01:14:00Z,28.8850,-90.0250,10.0,5.5,152.0,6.2,'11111222,11111222,11111222' 
LOOP,urn:ioos:station:wmo:lopl1:1,2014-03-01T01:29:00Z,28.8850,-90.0250,10.0,5.7,144.0,6.4,'11111222,11111222,11111222' 
LOOP,urn:ioos:station:wmo:lopl1:1,2014-03-01T01:44:00Z,28.8850,-90.0250,10.0,6.6,142.0,7.4,'11111222,11111222,11111222' 
LOOP,urn:ioos:station:wmo:lopl1:1,2014-03-01T01:59:00Z,28.8850,-90.0250,10.0,6.7,144.0,7.9,'11111222,11111222,11111222' 
LOOP,urn:ioos:station:wmo:lopl1:1,2014-03-01T02:14:00Z,28.8850,-90.0250,10.0,7.2,142.0,8.0,'11111222,11111222,11111222' 
LOOP,urn:ioos:station:wmo:lopl1:1,2014-03-01T02:29:00Z,28.8850,-90.0250,10.0,7.2,143.0,8.0,'11111222,11111222,11111222' 
LOOP,urn:ioos:station:wmo:lopl1:1,2014-03-01T02:44:00Z,28.8850,-90.0250,10.0,6.7,141.0,7.7,'11111222,11111222,11111222' 
LOOP,urn:ioos:station:wmo:lopl1:1,2014-03-01T02:59:00Z,28.8850,-90.0250,10.0,6.7,135.0,7.5,'11111222,11111222,11111222' 
LOOP,urn:ioos:station:wmo:lopl1:1,2014-03-01T03:14:00Z,28.8850,-90.0250,10.0,6.7,132.0,7.5,'11111222,11111222,11111222' 
LOOP,urn:ioos:station:wmo:lopl1:1,2014-03-01T03:29:00Z,28.8850,-90.0250,10.0,7.6,136.0,8.2,'11111222,11111222,11111222' 
LOOP,urn:ioos:station:wmo:lopl1:1,2014-03-01T03:44:00Z,28.8850,-90.0250,10.0,7.7,136.0,8.5,'11111222,11111222,11111222' 
LOOP,urn:ioos:station:wmo:lopl1:1,2014-03-01T03:59:00Z,28.8850,-90.0250,10.0,7.6,150.0,9.4,'11111222,11111222,11111222' 
LOOP,urn:ioos:station:wmo:lopl1:1,2014-03-01T04:14:00Z,28.8850,-90.0250,10.0,7.5,144.0,8.4,'11111222,11111222,11111222' 
LOOP,urn:ioos:station:wmo:lopl1:1,2014-03-01T04:34:00Z,28.8850,-90.0250,10.0,7.1,150.0,8.1,'11111222,11111222,11111222' 
LOOP,urn:ioos:station:wmo:lopl1:1,2014-03-01T04:49:00Z,28.8850,-90.0250,10.0,7.0,152.0,7.6,'11111222,11111222,11111222' 
LOOP,urn:ioos:station:wmo:lopl1:1,2014-03-01T05:04:00Z,28.8850,-90.0250,10.0,6.9,154.0,8.1,'11111222,11111222,11111222' 
LOOP,urn:ioos:station:wmo:lopl1:1,2014-03-01T05:19:00Z,28.8850,-90.0250,10.0,7.2,157.0,8.0,'11111222,11111222,11111222' 
LOOP,urn:ioos:station:wmo:lopl1:1,2014-03-01T05:34:00Z,28.8850,-90.0250,10.0,6.7,161.0,7.7,'11111222,11111222,11111222' 
LOOP,urn:ioos:station:wmo:lopl1:1,2014-03-01T05:49:00Z,28.8850,-90.0250,10.0,7.0,151.0,7.7,'11111222,11111222,11111222' 
LOOP,urn:ioos:station:wmo:lopl1:1,2014-03-01T06:04:00Z,28.8850,-90.0250,10.0,6.9,155.0,7.6,'11111222,11111222,11111222' 
LOOP,urn:ioos:station:wmo:lopl1:1,2014-03-01T06:19:00Z,28.8850,-90.0250,10.0,7.2,152.0,8.5,'11111222,11111222,11111222' 
LOOP,urn:ioos:station:wmo:lopl1:1,2014-03-01T06:34:00Z,28.8850,-90.0250,10.0,7.5,156.0,8.6,'11111222,11111222,11111222' 
LOOP,urn:ioos:station:wmo:lopl1:1,2014-03-01T06:49:00Z,28.8850,-90.0250,10.0,7.4,155.0,8.2,'11111222,11111222,11111222' 
LOOP,urn:ioos:station:wmo:lopl1:1,2014-03-01T07:04:00Z,28.8850,-90.0250,10.0,7.6,157.0,8.4,'11111222,11111222,11111222' 
LOOP,urn:ioos:station:wmo:lopl1:1,2014-03-01T07:19:00Z,28.8850,-90.0250,10.0,7.6,156.0,8.3,'11111222,11111222,11111222' 
LOOP,urn:ioos:station:wmo:lopl1:1,2014-03-01T07:34:00Z,28.8850,-90.0250,10.0,7.3,154.0,8.2,'11111222,11111222,11111222' 
LOOP,urn:ioos:station:wmo:lopl1:1,2014-03-01T07:49:00Z,28.8850,-90.0250,10.0,7.8,152.0,8.4,'11111222,11111222,11111222' 
LOOP,urn:ioos:station:wmo:lopl1:1,2014-03-01T08:04:00Z,28.8850,-90.0250,10.0,8.1,150.0,8.9,'11111222,11111222,11111222' 
LOOP,urn:ioos:station:wmo:lopl1:1,2014-03-01T08:19:00Z,28.8850,-90.0250,10.0,7.8,156.0,8.9,'11111222,11111222,11111222' 
LOOP,urn:ioos:station:wmo:lopl1:1,2014-03-01T08:34:00Z,28.8850,-90.0250,10.0,7.6,158.0,8.8,'11111222,11111222,11111222' 
LOOP,urn:ioos:station:wmo:lopl1:1,2014-03-01T08:49:00Z,28.8850,-90.0250,10.0,8.0,157.0,9.0,'11111222,11111222,11111222' 
LOOP,urn:ioos:station:wmo:lopl1:1,2014-03-01T09:04:00Z,28.8850,-90.0250,10.0,8.0,158.0,9.1,'11111222,11111222,11111222' 
LOOP,urn:ioos:station:wmo:lopl1:1,2014-03-01T09:19:00Z,28.8850,-90.0250,10.0,8.8,162.0,9.8,'11111222,11111222,11111222' 
LOOP,urn:ioos:station:wmo:lopl1:1,2014-03-01T09:34:00Z,28.8850,-90.0250,10.0,8.3,168.0,9.1,'11111222,11111222,11111222' 
LOOP,urn:ioos:station:wmo:lopl1:1,2014-03-01T09:49:00Z,28.8850,-90.0250,10.0,8.2,161.0,9.2,'11111222,11111222,11111222' 
LOOP,urn:ioos:station:wmo:lopl1:1,2014-03-01T10:04:00Z,28.8850,-90.0250,10.0,8.2,161.0,8.9,'11111222,11111222,11111222' 
LOOP,urn:ioos:station:wmo:lopl1:1,2014-03-01T10:19:00Z,28.8850,-90.0250,10.0,7.6,163.0,8.6,'11111222,11111222,11111222' 
LOOP,urn:ioos:station:wmo:lopl1:1,2014-03-01T10:29:00Z,28.8850,-90.0250,10.0,8.1,155.0,8.9,'11111222,11111222,11111222' 
LOOP,urn:ioos:station:wmo:lopl1:1,2014-03-01T10:49:00Z,28.8850,-90.0250,10.0,7.5,158.0,8.2,'11111222,11111222,11111222' 
LOOP,urn:ioos:station:wmo:lopl1:1,2014-03-01T11:04:00Z,28.8850,-90.0250,10.0,7.6,159.0,8.5,'11111222,11111222,11111222' 
LOOP,urn:ioos:station:wmo:lopl1:1,2014-03-01T11:19:00Z,28.8850,-90.0250,10.0,7.8,165.0,8.4,'11111222,11111222,11111222' 
LOOP,urn:ioos:station:wmo:lopl1:1,2014-03-01T11:34:00Z,28.8850,-90.0250,10.0,6.9,168.0,7.7,'11111222,11111222,11111222' 
LOOP,urn:ioos:station:wmo:lopl1:1,2014-03-01T11:49:00Z,28.8850,-90.0250,10.0,7.2,157.0,7.9,'11111222,11111222,11111222' 
LOOP,urn:ioos:station:wmo:lopl1:1,2014-03-01T12:04:00Z,28.8850,-90.0250,10.0,7.6,161.0,8.2,'11111222,11111222,11111222' 
LOOP,urn:ioos:station:wmo:lopl1:1,2014-03-01T12:19:00Z,28.8850,-90.0250,10.0,6.8,159.0,7.3,'11111222,11111222,11111222' 
LOOP,urn:ioos:station:wmo:lopl1:1,2014-03-01T12:34:00Z,28.8850,-90.0250,10.0,7.5,164.0,8.2,'11111222,11111222,11111222' 
LOOP,urn:ioos:station:wmo:lopl1:1,2014-03-01T12:49:00Z,28.8850,-90.0250,10.0,8.5,163.0,9.3,'11111222,11111222,11111222' 
LOOP,urn:ioos:station:wmo:lopl1:1,2014-03-01T13:04:00Z,28.8850,-90.0250,10.0,8.8,160.0,9.3,'11111222,11111222,11111222' 
LOOP,urn:ioos:station:wmo:lopl1:1,2014-03-01T13:19:00Z,28.8850,-90.0250,10.0,8.4,163.0,9.1,'11111222,11111222,11111222' 
LOOP,urn:ioos:station:wmo:lopl1:1,2014-03-01T13:34:00Z,28.8850,-90.0250,10.0,9.2,165.0,9.9,'11111222,11111222,11111222' 
LOOP,urn:ioos:station:wmo:lopl1:1,2014-03-01T13:49:00Z,28.8850,-90.0250,10.0,9.2,164.0,10.0,'11111222,11111222,11111222' 
LOOP,urn:ioos:station:wmo:lopl1:1,2014-03-01T14:04:00Z,28.8850,-90.0250,10.0,8.6,165.0,9.5,'11111222,11111222,11111222' 
LOOP,urn:ioos:station:wmo:lopl1:1,2014-03-01T14:19:00Z,28.8850,-90.0250,10.0,8.8,166.0,9.8,'11111222,11111222,11111222' 
LOOP,urn:ioos:station:wmo:lopl1:1,2014-03-01T14:34:00Z,28.8850,-90.0250,10.0,8.6,163.0,9.2,'11111222,11111222,11111222' 
LOOP,urn:ioos:station:wmo:lopl1:1,2014-03-01T14:49:00Z,28.8850,-90.0250,10.0,8.8,165.0,9.5,'11111222,11111222,11111222' 
LOOP,urn:ioos:station:wmo:lopl1:1,2014-03-01T15:04:00Z,28.8850,-90.0250,10.0,8.5,167.0,9.7,'11111222,11111222,11111222' 
LOOP,urn:ioos:station:wmo:lopl1:1,2014-03-01T15:19:00Z,28.8850,-90.0250,10.0,8.0,167.0,8.8,'11111222,11111222,11111222' 
LOOP,urn:ioos:station:wmo:lopl1:1,2014-03-01T15:34:00Z,28.8850,-90.0250,10.0,7.6,168.0,8.3,'11111222,11111222,11111222' 
LOOP,urn:ioos:station:wmo:lopl1:1,2014-03-01T15:49:00Z,28.8850,-90.0250,10.0,7.6,172.0,8.4,'11111222,11111222,11111222' 
LOOP,urn:ioos:station:wmo:lopl1:1,2014-03-01T16:04:00Z,28.8850,-90.0250,10.0,7.4,170.0,8.0,'11111222,11111222,11111222' 
LOOP,urn:ioos:station:wmo:lopl1:1,2014-03-01T16:19:00Z,28.8850,-90.0250,10.0,7.4,167.0,8.2,'11111222,11111222,11111222' 
LOOP,urn:ioos:station:wmo:lopl1:1,2014-03-01T16:34:00Z,28.8850,-90.0250,10.0,7.6,170.0,8.3,'11111222,11111222,11111222' 
LOOP,urn:ioos:station:wmo:lopl1:1,2014-03-01T16:49:00Z,28.8850,-90.0250,10.0,7.2,170.0,8.1,'11111222,11111222,11111222' 
LOOP,urn:ioos:station:wmo:lopl1:1,2014-03-01T17:04:00Z,28.8850,-90.0250,10.0,7.3,173.0,7.8,'11111222,11111222,11111222' 
LOOP,urn:ioos:station:wmo:lopl1:1,2014-03-01T17:19:00Z,28.8850,-90.0250,10.0,6.9,173.0,7.9,'11111222,11111222,11111222' 
LOOP,urn:ioos:station:wmo:lopl1:1,2014-03-01T17:39:00Z,28.8850,-90.0250,10.0,6.9,175.0,7.6,'11111222,11111222,11111222' 
LOOP,urn:ioos:station:wmo:lopl1:1,2014-03-01T17:54:00Z,28.8850,-90.0250,10.0,7.0,173.0,7.8,'11111222,11111222,11111222' 
LOOP,urn:ioos:station:wmo:lopl1:1,2014-03-01T18:09:00Z,28.8850,-90.0250,10.0,7.4,177.0,8.0,'11111222,11111222,11111222' 
LOOP,urn:ioos:station:wmo:lopl1:1,2014-03-01T18:24:00Z,28.8850,-90.0250,10.0,6.8,172.0,7.5,'11111222,11111222,11111222' 
LOOP,urn:ioos:station:wmo:lopl1:1,2014-03-01T18:39:00Z,28.8850,-90.0250,10.0,6.9,176.0,7.9,'11111222,11111222,11111222' 
LOOP,urn:ioos:station:wmo:lopl1:1,2014-03-01T18:54:00Z,28.8850,-90.0250,10.0,6.9,176.0,7.4,'11111222,11111222,11111222' 
LOOP,urn:ioos:station:wmo:lopl1:1,2014-03-01T19:09:00Z,28.8850,-90.0250,10.0,6.5,174.0,6.8,'11111222,11111222,11111222' 
LOOP,urn:ioos:station:wmo:lopl1:1,2014-03-01T19:24:00Z,28.8850,-90.0250,10.0,6.4,178.0,6.8,'11111222,11111222,11111222' 
LOOP,urn:ioos:station:wmo:lopl1:1,2014-03-01T19:39:00Z,28.8850,-90.0250,10.0,6.7,183.0,7.2,'11111222,11111222,11111222' 
LOOP,urn:ioos:station:wmo:lopl1:1,2014-03-01T19:54:00Z,28.8850,-90.0250,10.0,6.0,183.0,6.5,'11111222,11111222,11111222' 
LOOP,urn:ioos:station:wmo:lopl1:1,2014-03-01T20:09:00Z,28.8850,-90.0250,10.0,5.9,184.0,6.7,'11111222,11111222,11111222' 
LOOP,urn:ioos:station:wmo:lopl1:1,2014-03-01T20:24:00Z,28.8850,-90.0250,10.0,5.8,182.0,6.5,'11111222,11111222,11111222' 
LOOP,urn:ioos:station:wmo:lopl1:1,2014-03-01T20:39:00Z,28.8850,-90.0250,10.0,5.7,184.0,6.4,'11111222,11111222,11111222' 
LOOP,urn:ioos:station:wmo:lopl1:1,2014-03-01T20:54:00Z,28.8850,-90.0250,10.0,5.4,181.0,5.9,'11111222,11111222,11111222' 
LOOP,urn:ioos:station:wmo:lopl1:1,2014-03-01T21:09:00Z,28.8850,-90.0250,10.0,5.3,180.0,5.6,'11111222,11111222,11111222' 
LOOP,urn:ioos:station:wmo:lopl1:1,2014-03-01T21:24:00Z,28.8850,-90.0250,10.0,5.8,181.0,6.0,'11111222,11111222,11111222' 
LOOP,urn:ioos:station:wmo:lopl1:1,2014-03-01T21:39:00Z,28.8850,-90.0250,10.0,5.7,183.0,6.4,'11111222,11111222,11111222' 
LOOP,urn:ioos:station:wmo:lopl1:1,2014-03-01T21:54:00Z,28.8850,-90.0250,10.0,5.1,183.0,5.6,'11111222,11111222,11111222' 
LOOP,urn:ioos:station:wmo:lopl1:1,2014-03-01T22:09:00Z,28.8850,-90.0250,10.0,5.2,179.0,5.9,'11111222,11111222,11111222' 
LOOP,urn:ioos:station:wmo:lopl1:1,2014-03-01T22:24:00Z,28.8850,-90.0250,10.0,5.1,171.0,5.7,'11111222,11111222,11111222' 
LOOP,urn:ioos:station:wmo:lopl1:1,2014-03-01T22:39:00Z,28.8850,-90.0250,10.0,5.0,165.0,5.4,'11111222,11111222,11111222' 
LOOP,urn:ioos:station:wmo:lopl1:1,2014-03-01T22:54:00Z,28.8850,-90.0250,10.0,4.6,165.0,5.1,'11111222,11111222,11111222' 
LOOP,urn:ioos:station:wmo:lopl1:1,2014-03-01T23:09:00Z,28.8850,-90.0250,10.0,4.5,160.0,4.8,'11111222,11111222,11111222' 
LOOP,urn:ioos:station:wmo:lopl1:1,2014-03-01T23:24:00Z,28.8850,-90.0250,10.0,4.4,157.0,4.6,'11111222,11111222,11111222' 
LOOP,urn:ioos:station:wmo:lopl1:1,2014-03-01T23:39:00Z,28.8850,-90.0250,10.0,4.5,148.0,4.7,'11111222,11111222,11111222' 
LOOP,urn:ioos:station:wmo:lopl1:1,2014-03-01T23:54:00Z,28.8850,-90.0250,10.0,4.0,146.0,4.6,'11111222,11111222,11111222' 
LOOP,urn:ioos:station:wmo:lopl1:1,2014-03-02T00:09:00Z,28.8850,-90.0250,10.0,4.6,139.0,4.9,'11111222,11111222,11111222' 
LOOP,urn:ioos:station:wmo:lopl1:1,2014-03-02T00:29:00Z,28.8850,-90.0250,10.0,4.5,137.0,4.8,'11111222,11111222,11111222' 
LOOP,urn:ioos:station:wmo:lopl1:1,2014-03-02T00:44:00Z,28.8850,-90.0250,10.0,4.3,139.0,4.4,'11111222,11111222,11111222' 
LOOP,urn:ioos:station:wmo:lopl1:1,2014-03-02T00:59:00Z,28.8850,-90.0250,10.0,4.4,136.0,4.6,'11111222,11111222,11111222' 
LOOP,urn:ioos:station:wmo:lopl1:1,2014-03-02T01:14:00Z,28.8850,-90.0250,10.0,4.8,134.0,4.9,'11111222,11111222,11111222' 
LOOP,urn:ioos:station:wmo:lopl1:1,2014-03-02T01:29:00Z,28.8850,-90.0250,10.0,4.9,131.0,5.2,'11111222,11111222,11111222' 
LOOP,urn:ioos:station:wmo:lopl1:1,2014-03-02T01:44:00Z,28.8850,-90.0250,10.0,5.2,124.0,5.3,'11111222,11111222,11111222' 
LOOP,urn:ioos:station:wmo:lopl1:1,2014-03-02T01:59:00Z,28.8850,-90.0250,10.0,5.3,89.0,6.3,'11111222,11111222,11111222' 
LOOP,urn:ioos:station:wmo:lopl1:1,2014-03-02T02:14:00Z,28.8850,-90.0250,10.0,6.9,105.0,7.4,'11111222,11111222,11111222' 
LOOP,urn:ioos:station:wmo:lopl1:1,2014-03-02T02:29:00Z,28.8850,-90.0250,10.0,6.4,107.0,6.8,'11111222,11111222,11111222' 
LOOP,urn:ioos:station:wmo:lopl1:1,2014-03-02T02:44:00Z,28.8850,-90.0250,10.0,6.9,113.0,7.2,'11111222,11111222,11111222' 
LOOP,urn:ioos:station:wmo:lopl1:1,2014-03-02T02:59:00Z,28.8850,-90.0250,10.0,5.3,108.0,5.8,'11111222,11111222,11111222' 
LOOP,urn:ioos:station:wmo:lopl1:1,2014-03-02T03:14:00Z,28.8850,-90.0250,10.0,5.4,102.0,6.5,'11111222,11111222,11111222' 
LOOP,urn:ioos:station:wmo:lopl1:1,2014-03-02T03:29:00Z,28.8850,-90.0250,10.0,6.5,108.0,7.1,'11111222,11111222,11111222' 
LOOP,urn:ioos:station:wmo:lopl1:1,2014-03-02T03:44:00Z,28.8850,-90.0250,10.0,6.8,109.0,7.3,'11111222,11111222,11111222' 
LOOP,urn:ioos:station:wmo:lopl1:1,2014-03-02T03:59:00Z,28.8850,-90.0250,10.0,6.8,109.0,7.1,'11111222,11111222,11111222' 
LOOP,urn:ioos:station:wmo:lopl1:1,2014-03-02T04:14:00Z,28.8850,-90.0250,10.0,7.2,111.0,7.8,'11111222,11111222,11111222' 
LOOP,urn:ioos:station:wmo:lopl1:1,2014-03-02T04:29:00Z,28.8850,-90.0250,10.0,7.2,118.0,7.6,'11111222,11111222,11111222' 
LOOP,urn:ioos:station:wmo:lopl1:1,2014-03-02T04:44:00Z,28.8850,-90.0250,10.0,7.2,119.0,8.0,'11111222,11111222,11111222' 
LOOP,urn:ioos:station:wmo:lopl1:1,2014-03-02T04:59:00Z,28.8850,-90.0250,10.0,7.3,122.0,8.0,'11111222,11111222,11111222' 
LOOP,urn:ioos:station:wmo:lopl1:1,2014-03-02T05:14:00Z,28.8850,-90.0250,10.0,7.4,124.0,7.9,'11111222,11111222,11111222' 
LOOP,urn:ioos:station:wmo:lopl1:1,2014-03-02T05:29:00Z,28.8850,-90.0250,10.0,7.5,123.0,8.0,'11111222,11111222,11111222' 
LOOP,urn:ioos:station:wmo:lopl1:1,2014-03-02T05:44:00Z,28.8850,-90.0250,10.0,8.0,123.0,8.4,'11111222,11111222,11111222' 
LOOP,urn:ioos:station:wmo:lopl1:1,2014-03-02T05:59:00Z,28.8850,-90.0250,10.0,7.9,126.0,8.5,'11111222,11111222,11111222' 
LOOP,urn:ioos:station:wmo:lopl1:1,2014-03-02T06:14:00Z,28.8850,-90.0250,10.0,8.7,129.0,9.2,'11111222,11111222,11111222' 
LOOP,urn:ioos:station:wmo:lopl1:1,2014-03-02T06:29:00Z,28.8850,-90.0250,10.0,8.3,128.0,9.0,'11111222,11111222,11111222' 
LOOP,urn:ioos:station:wmo:lopl1:1,2014-03-02T06:44:00Z,28.8850,-90.0250,10.0,8.0,131.0,8.3,'11111222,11111222,11111222' 
LOOP,urn:ioos:station:wmo:lopl1:1,2014-03-02T06:59:00Z,28.8850,-90.0250,10.0,7.6,130.0,8.4,'11111222,11111222,11111222' 
LOOP,urn:ioos:station:wmo:lopl1:1,2014-03-02T07:14:00Z,28.8850,-90.0250,10.0,7.8,130.0,8.3,'11111222,11111222,11111222' 
LOOP,urn:ioos:station:wmo:lopl1:1,2014-03-02T07:29:00Z,28.8850,-90.0250,10.0,7.2,130.0,8.1,'11111222,11111222,11111222' 
LOOP,urn:ioos:station:wmo:lopl1:1,2014-03-02T07:44:00Z,28.8850,-90.0250,10.0,7.8,132.0,8.4,'11111222,11111222,11111222' 
LOOP,urn:ioos:station:wmo:lopl1:1,2014-03-02T07:59:00Z,28.8850,-90.0250,10.0,7.9,131.0,8.7,'11111222,11111222,11111222' 
LOOP,urn:ioos:station:wmo:lopl1:1,2014-03-02T08:19:00Z,28.8850,-90.0250,10.0,7.8,129.0,8.5,'11111222,11111222,11111222' 
LOOP,urn:ioos:station:wmo:lopl1:1,2014-03-02T08:34:00Z,28.8850,-90.0250,10.0,8.0,129.0,8.9,'11111222,11111222,11111222' 
LOOP,urn:ioos:station:wmo:lopl1:1,2014-03-02T08:49:00Z,28.8850,-90.0250,10.0,7.1,124.0,7.8,'11111222,11111222,11111222' 
LOOP,urn:ioos:station:wmo:lopl1:1,2014-03-02T09:04:00Z,28.8850,-90.0250,10.0,7.6,126.0,8.6,'11111222,11111222,11111222' 
LOOP,urn:ioos:station:wmo:lopl1:1,2014-03-02T09:19:00Z,28.8850,-90.0250,10.0,8.4,129.0,8.9,'11111222,11111222,11111222' 
LOOP,urn:ioos:station:wmo:lopl1:1,2014-03-02T09:34:00Z,28.8850,-90.0250,10.0,8.2,130.0,8.6,'11111222,11111222,11111222' 
LOOP,urn:ioos:station:wmo:lopl1:1,2014-03-02T09:49:00Z,28.8850,-90.0250,10.0,7.5,128.0,8.2,'11111222,11111222,11111222' 
LOOP,urn:ioos:station:wmo:lopl1:1,2014-03-02T10:04:00Z,28.8850,-90.0250,10.0,8.0,132.0,8.7,'11111222,11111222,11111222' 
LOOP,urn:ioos:station:wmo:lopl1:1,2014-03-02T10:19:00Z,28.8850,-90.0250,10.0,8.5,130.0,9.0,'11111222,11111222,11111222' 
LOOP,urn:ioos:station:wmo:lopl1:1,2014-03-02T10:34:00Z,28.8850,-90.0250,10.0,8.6,131.0,9.3,'11111222,11111222,11111222' 
LOOP,urn:ioos:station:wmo:lopl1:1,2014-03-02T10:49:00Z,28.8850,-90.0250,10.0,8.5,130.0,9.1,'11111222,11111222,11111222' 
LOOP,urn:ioos:station:wmo:lopl1:1,2014-03-02T11:04:00Z,28.8850,-90.0250,10.0,9.4,131.0,10.3,'11111222,11111222,11111222' 
LOOP,urn:ioos:station:wmo:lopl1:1,2014-03-02T11:19:00Z,28.8850,-90.0250,10.0,8.6,128.0,9.2,'11111222,11111222,11111222' 
LOOP,urn:ioos:station:wmo:lopl1:1,2014-03-02T11:34:00Z,28.8850,-90.0250,10.0,7.8,128.0,8.5,'11111222,11111222,11111222' 
LOOP,urn:ioos:station:wmo:lopl1:1,2014-03-02T11:49:00Z,28.8850,-90.0250,10.0,7.9,131.0,8.4,'11111222,11111222,11111222' 
LOOP,urn:ioos:station:wmo:lopl1:1,2014-03-02T12:04:00Z,28.8850,-90.0250,10.0,8.5,131.0,9.3,'11111222,11111222,11111222' 
LOOP,urn:ioos:station:wmo:lopl1:1,2014-03-02T12:19:00Z,28.8850,-90.0250,10.0,7.4,130.0,7.9,'11111222,11111222,11111222' 
LOOP,urn:ioos:station:wmo:lopl1:1,2014-03-02T12:34:00Z,28.8850,-90.0250,10.0,7.2,127.0,7.5,'11111222,11111222,11111222' 
LOOP,urn:ioos:station:wmo:lopl1:1,2014-03-02T12:49:00Z,28.8850,-90.0250,10.0,7.2,127.0,7.7,'11111222,11111222,11111222' 
LOOP,urn:ioos:station:wmo:lopl1:1,2014-03-02T13:04:00Z,28.8850,-90.0250,10.0,8.0,129.0,8.5,'11111222,11111222,11111222' 
LOOP,urn:ioos:station:wmo:lopl1:1,2014-03-02T13:19:00Z,28.8850,-90.0250,10.0,8.0,127.0,8.4,'11111222,11111222,11111222' 
LOOP,urn:ioos:station:wmo:lopl1:1,2014-03-02T13:34:00Z,28.8850,-90.0250,10.0,7.7,127.0,8.3,'11111222,11111222,11111222' 
LOOP,urn:ioos:station:wmo:lopl1:1,2014-03-02T13:49:00Z,28.8850,-90.0250,10.0,8.3,129.0,9.0,'11111222,11111222,11111222' 
LOOP,urn:ioos:station:wmo:lopl1:1,2014-03-02T14:04:00Z,28.8850,-90.0250,10.0,7.8,128.0,8.2,'11111222,11111222,11111222' 
LOOP,urn:ioos:station:wmo:lopl1:1,2014-03-02T14:19:00Z,28.8850,-90.0250,10.0,8.1,135.0,8.8,'11111222,11111222,11111222' 
LOOP,urn:ioos:station:wmo:lopl1:1,2014-03-02T14:34:00Z,28.8850,-90.0250,10.0,7.2,133.0,8.4,'11111222,11111222,11111222' 
LOOP,urn:ioos:station:wmo:lopl1:1,2014-03-02T14:54:00Z,28.8850,-90.0250,10.0,6.8,130.0,8.1,'11111222,11111222,11111222' 
LOOP,urn:ioos:station:wmo:lopl1:1,2014-03-02T15:09:00Z,28.8850,-90.0250,10.0,7.3,136.0,8.5,'11111222,11111222,11111222' 
LOOP,urn:ioos:station:wmo:lopl1:1,2014-03-02T15:24:00Z,28.8850,-90.0250,10.0,8.0,136.0,8.4,'11111222,11111222,11111222' 
LOOP,urn:ioos:station:wmo:lopl1:1,2014-03-02T15:39:00Z,28.8850,-90.0250,10.0,8.0,139.0,8.4,'11111222,11111222,11111222' 
LOOP,urn:ioos:station:wmo:lopl1:1,2014-03-02T15:54:00Z,28.8850,-90.0250,10.0,8.0,140.0,8.5,'11111222,11111222,11111222' 
LOOP,urn:ioos:station:wmo:lopl1:1,2014-03-02T16:09:00Z,28.8850,-90.0250,10.0,7.5,141.0,8.1,'11111222,11111222,11111222' 
LOOP,urn:ioos:station:wmo:lopl1:1,2014-03-02T16:24:00Z,28.8850,-90.0250,10.0,7.4,140.0,7.9,'11111222,11111222,11111222' 
LOOP,urn:ioos:station:wmo:lopl1:1,2014-03-02T16:39:00Z,28.8850,-90.0250,10.0,7.0,143.0,7.6,'11111222,11111222,11111222' 
LOOP,urn:ioos:station:wmo:lopl1:1,2014-03-02T16:54:00Z,28.8850,-90.0250,10.0,6.8,145.0,7.5,'11111222,11111222,11111222' 
LOOP,urn:ioos:station:wmo:lopl1:1,2014-03-02T17:09:00Z,28.8850,-90.0250,10.0,7.4,148.0,7.8,'11111222,11111222,11111222' 
LOOP,urn:ioos:station:wmo:lopl1:1,2014-03-02T17:24:00Z,28.8850,-90.0250,10.0,7.2,147.0,7.6,'11111222,11111222,11111222' 
LOOP,urn:ioos:station:wmo:lopl1:1,2014-03-02T17:39:00Z,28.8850,-90.0250,10.0,7.6,153.0,8.3,'11111222,11111222,11111222' 
LOOP,urn:ioos:station:wmo:lopl1:1,2014-03-02T17:54:00Z,28.8850,-90.0250,10.0,7.7,149.0,8.7,'11111222,11111222,11111222' 
LOOP,urn:ioos:station:wmo:lopl1:1,2014-03-02T18:09:00Z,28.8850,-90.0250,10.0,9.0,153.0,9.8,'11111222,11111222,11111222' 
LOOP,urn:ioos:station:wmo:lopl1:1,2014-03-02T18:24:00Z,28.8850,-90.0250,10.0,10.2,153.0,10.4,'11111222,11111222,11111222' 
LOOP,urn:ioos:station:wmo:lopl1:1,2014-03-02T18:39:00Z,28.8850,-90.0250,10.0,9.2,152.0,9.7,'11111222,11111222,11111222' 
LOOP,urn:ioos:station:wmo:lopl1:1,2014-03-02T18:54:00Z,28.8850,-90.0250,10.0,7.9,150.0,8.3,'11111222,11111222,11111222' 
LOOP,urn:ioos:station:wmo:lopl1:1,2014-03-02T19:09:00Z,28.8850,-90.0250,10.0,7.5,148.0,7.8,'11111222,11111222,11111222' 
LOOP,urn:ioos:station:wmo:lopl1:1,2014-03-02T19:24:00Z,28.8850,-90.0250,10.0,7.2,148.0,7.6,'11111222,11111222,11111222' 
LOOP,urn:ioos:station:wmo:lopl1:1,2014-03-02T19:39:00Z,28.8850,-90.0250,10.0,7.9,151.0,8.3,'11111222,11111222,11111222' 
LOOP,urn:ioos:station:wmo:lopl1:1,2014-03-02T19:54:00Z,28.8850,-90.0250,10.0,7.7,149.0,8.1,'11111222,11111222,11111222' 
LOOP,urn:ioos:station:wmo:lopl1:1,2014-03-02T20:09:00Z,28.8850,-90.0250,10.0,8.1,149.0,8.5,'11111222,11111222,11111222' 
LOOP,urn:ioos:station:wmo:lopl1:1,2014-03-02T20:24:00Z,28.8850,-90.0250,10.0,8.2,153.0,8.7,'11111222,11111222,11111222' 
LOOP,urn:ioos:station:wmo:lopl1:1,2014-03-02T20:39:00Z,28.8850,-90.0250,10.0,8.4,152.0,8.9,'11111222,11111222,11111222' 
LOOP,urn:ioos:station:wmo:lopl1:1,2014-03-02T20:54:00Z,28.8850,-90.0250,10.0,8.2,152.0,8.8,'11111222,11111222,11111222' 
LOOP,urn:ioos:station:wmo:lopl1:1,2014-03-02T21:09:00Z,28.8850,-90.0250,10.0,7.9,154.0,8.6,'11111222,11111222,11111222' 
LOOP,urn:ioos:station:wmo:lopl1:1,2014-03-02T21:24:00Z,28.8850,-90.0250,10.0,7.3,155.0,8.3,'11111222,11111222,11111222' 
LOOP,urn:ioos:station:wmo:lopl1:1,2014-03-02T21:44:00Z,28.8850,-90.0250,10.0,7.0,157.0,8.2,'11111222,11111222,11111222' 
LOOP,urn:ioos:station:wmo:lopl1:1,2014-03-02T21:59:00Z,28.8850,-90.0250,10.0,7.8,155.0,8.4,'11111222,11111222,11111222' 
LOOP,urn:ioos:station:wmo:lopl1:1,2014-03-02T22:14:00Z,28.8850,-90.0250,10.0,8.0,153.0,8.6,'11111222,11111222,11111222' 
LOOP,urn:ioos:station:wmo:lopl1:1,2014-03-02T22:29:00Z,28.8850,-90.0250,10.0,7.6,156.0,8.1,'11111222,11111222,11111222' 
LOOP,urn:ioos:station:wmo:lopl1:1,2014-03-02T22:44:00Z,28.8850,-90.0250,10.0,8.0,155.0,8.4,'11111222,11111222,11111222' 
LOOP,urn:ioos:station:wmo:lopl1:1,2014-03-02T22:59:00Z,28.8850,-90.0250,10.0,7.9,153.0,8.5,'11111222,11111222,11111222' 
LOOP,urn:ioos:station:wmo:lopl1:1,2014-03-02T23:14:00Z,28.8850,-90.0250,10.0,8.1,151.0,8.8,'11111222,11111222,11111222' 
LOOP,urn:ioos:station:wmo:lopl1:1,2014-03-02T23:29:00Z,28.8850,-90.0250,10.0,8.1,151.0,8.8,'11111222,11111222,11111222' 
LOOP,urn:ioos:station:wmo:lopl1:1,2014-03-02T23:44:00Z,28.8850,-90.0250,10.0,7.8,153.0,8.3,'11111222,11111222,11111222' 
LOOP,urn:ioos:station:wmo:lopl1:1,2014-03-02T23:59:00Z,28.8850,-90.0250,10.0,7.9,154.0,8.4,'11111222,11111222,11111222' 
LOOP,urn:ioos:station:wmo:lopl1:1,2014-03-03T00:14:00Z,28.8850,-90.0250,10.0,8.3,154.0,9.0,'11111222,11111222,11111222' 
LOOP,urn:ioos:station:wmo:lopl1:1,2014-03-03T00:29:00Z,28.8850,-90.0250,10.0,8.9,156.0,9.7,'11111222,11111222,11111222' 
LOOP,urn:ioos:station:wmo:lopl1:1,2014-03-03T00:44:00Z,28.8850,-90.0250,10.0,8.5,153.0,9.6,'11111222,11111222,11111222' 
LOOP,urn:ioos:station:wmo:lopl1:1,2014-03-03T00:59:00Z,28.8850,-90.0250,10.0,8.2,154.0,9.0,'11111222,11111222,11111222' 
LOOP,urn:ioos:station:wmo:lopl1:1,2014-03-03T01:14:00Z,28.8850,-90.0250,10.0,8.3,157.0,9.1,'11111222,11111222,11111222' 
LOOP,urn:ioos:station:wmo:lopl1:1,2014-03-03T01:29:00Z,28.8850,-90.0250,10.0,8.2,159.0,8.8,'11111222,11111222,11111222' 
LOOP,urn:ioos:station:wmo:lopl1:1,2014-03-03T01:44:00Z,28.8850,-90.0250,10.0,8.0,157.0,8.6,'11111222,11111222,11111222' 